Hourly Weather Gogotl

Today, 25 November, Wednesday

Time Temperature Precipitation Wind Pressure Humidity
00:00 0°C° 0 mm 1 mps 637 mmHg 58%
01:00 0°C° 0 mm 1 mps 637 mmHg 61%
02:00 0°C° 0 mm 1 mps 637 mmHg 65%
03:00 -1°C° 0 mm 1 mps 636 mmHg 69%
04:00 -2°C° 0 mm 1 mps 636 mmHg 71%
05:00 -2°C° 0 mm 1 mps 636 mmHg 73%
06:00 -3°C° 0 mm 1 mps 636 mmHg 75%
07:00 -2°C° 0 mm 1 mps 636 mmHg 75%
08:00 -2°C° 0 mm 0 mps 637 mmHg 74%
09:00 -1°C° 0 mm 0 mps 637 mmHg 75%
10:00 0°C° 0.1 mm 1 mps 637 mmHg 77%
11:00 0°C° 0.1 mm 1 mps 637 mmHg 78%
12:00 +1°C° 0.1 mm 1 mps 637 mmHg 79%
13:00 +1°C° 0.2 mm 1 mps 637 mmHg 83%
14:00 0°C° 0.2 mm 1 mps 637 mmHg 86%
15:00 0°C° 0 mm 1 mps 637 mmHg 90%
16:00 -1°C° 0.2 mm 1 mps 637 mmHg 91%
17:00 -1°C° 0.2 mm 1 mps 637 mmHg 93%
18:00 -2°C° 0.2 mm 1 mps 637 mmHg 94%
19:00 -2°C° 0.2 mm 1 mps 637 mmHg 94%
20:00 -3°C° 0.2 mm 1 mps 638 mmHg 93%
21:00 -3°C° 0.2 mm 1 mps 638 mmHg 92%
22:00 -3°C° 0 mm 1 mps 637 mmHg 89%
23:00 -4°C° 0 mm 1 mps 637 mmHg 85%

Tomorrow, 26 November, Thursday

Time Temperature Precipitation Wind Pressure Humidity
00:00 -6°C° 0 mm 2 mps 637 mmHg 82%
01:00 -6°C° 0 mm 2 mps 637 mmHg 80%
02:00 -6°C° 0 mm 2 mps 637 mmHg 78%
03:00 -6°C° 0 mm 2 mps 637 mmHg 76%
04:00 -6°C° 0 mm 2 mps 637 mmHg 75%
05:00 -6°C° 0 mm 2 mps 637 mmHg 75%
06:00 -6°C° 0 mm 2 mps 637 mmHg 75%
07:00 -4°C° 0 mm 1 mps 638 mmHg 73%
08:00 -3°C° 0 mm 1 mps 638 mmHg 72%
09:00 -2°C° 0 mm 1 mps 638 mmHg 70%
10:00 -1°C° 0 mm 1 mps 638 mmHg 70%
11:00 -1°C° 0 mm 1 mps 638 mmHg 71%
12:00 0°C° 0 mm 1 mps 638 mmHg 71%
13:00 0°C° 0.1 mm 1 mps 638 mmHg 72%
14:00 0°C° 0.1 mm 1 mps 638 mmHg 74%
15:00 0°C° 0.1 mm 1 mps 638 mmHg 76%
16:00 -1°C° 0.1 mm 1 mps 637 mmHg 80%
17:00 -2°C° 0.1 mm 1 mps 637 mmHg 83%
18:00 -3°C° 0.1 mm 1 mps 637 mmHg 87%
19:00 -3°C° 0 mm 1 mps 637 mmHg 86%
20:00 -4°C° 0 mm 1 mps 637 mmHg 85%
21:00 -4°C° 0 mm 1 mps 637 mmHg 83%
22:00 -6°C° 0 mm 1 mps 637 mmHg 82%
23:00 -6°C° 0 mm 1 mps 638 mmHg 81%

Day after tomorrow, 27 November, Friday

Time Temperature Precipitation Wind Pressure Humidity
00:00 -6°C° 0 mm 1 mps 638 mmHg 81%
01:00 -6°C° 0 mm 1 mps 638 mmHg 81%
02:00 -6°C° 0 mm 1 mps 638 mmHg 82%
03:00 -6°C° 0 mm 1 mps 639 mmHg 82%
04:00 -7°C° 0 mm 1 mps 639 mmHg 81%
05:00 -7°C° 0 mm 1 mps 639 mmHg 80%
06:00 -7°C° 0 mm 1 mps 640 mmHg 79%
07:00 -6°C° 0 mm 1 mps 640 mmHg 74%
08:00 -4°C° 0 mm 1 mps 641 mmHg 69%
09:00 -3°C° 0 mm 1 mps 642 mmHg 65%
10:00 -2°C° 0 mm 1 mps 643 mmHg 60%
11:00 -1°C° 0 mm 1 mps 643 mmHg 56%
12:00 +1°C° 0 mm 1 mps 643 mmHg 51%
13:00 +1°C° 0 mm 1 mps 643 mmHg 53%
14:00 +1°C° 0 mm 1 mps 643 mmHg 55%
15:00 +1°C° 0 mm 1 mps 643 mmHg 57%
16:00 0°C° 0 mm 1 mps 643 mmHg 54%
17:00 -4°C° 0 mm 2 mps 643 mmHg 51%
18:00 -5°C° 0 mm 2 mps 643 mmHg 48%
19:00 -4°C° 0 mm 2 mps 643 mmHg 45%
20:00 -4°C° 0 mm 2 mps 643 mmHg 42%
21:00 -4°C° 0 mm 2 mps 643 mmHg 38%
22:00 -4°C° 0 mm 2 mps 643 mmHg 38%
23:00 -5°C° 0 mm 3 mps 644 mmHg 37%

28 November, Saturday

Time Temperature Precipitation Wind Pressure Humidity
00:00 -5°C° 0 mm 3 mps 644 mmHg 37%
01:00 -5°C° 0 mm 3 mps 643 mmHg 37%
02:00 -5°C° 0 mm 3 mps 643 mmHg 38%
03:00 -5°C° 0 mm 3 mps 643 mmHg 38%
04:00 -5°C° 0 mm 3 mps 643 mmHg 37%
05:00 -4°C° 0 mm 3 mps 643 mmHg 36%
06:00 -4°C° 0 mm 3 mps 642 mmHg 35%
07:00 -2°C° 0 mm 2 mps 643 mmHg 36%
08:00 -1°C° 0 mm 2 mps 643 mmHg 37%
09:00 +2°C° 0 mm 2 mps 643 mmHg 38%
10:00 +3°C° 0 mm 2 mps 643 mmHg 40%
11:00 +6°C° 0 mm 1 mps 643 mmHg 43%
12:00 +7°C° 0 mm 1 mps 644 mmHg 46%
13:00 +6°C° 0 mm 1 mps 643 mmHg 46%
14:00 +6°C° 0 mm 1 mps 643 mmHg 46%
15:00 +5°C° 0 mm 1 mps 642 mmHg 46%
16:00 +3°C° 0 mm 2 mps 642 mmHg 44%
17:00 +1°C° 0 mm 2 mps 642 mmHg 41%
18:00 -1°C° 0 mm 3 mps 641 mmHg 38%
19:00 -1°C° 0 mm 3 mps 641 mmHg 37%
20:00 -1°C° 0 mm 3 mps 641 mmHg 36%
21:00 -2°C° 0 mm 3 mps 641 mmHg 35%
22:00 -2°C° 0 mm 3 mps 641 mmHg 36%
23:00 -2°C° 0 mm 3 mps 641 mmHg 36%

29 November, Sunday

Time Temperature Precipitation Wind Pressure Humidity
00:00 -2°C° 0 mm 3 mps 641 mmHg 36%
01:00 -2°C° 0 mm 3 mps 641 mmHg 39%
02:00 -2°C° 0 mm 3 mps 641 mmHg 41%
03:00 -2°C° 0 mm 3 mps 641 mmHg 44%
04:00 -1°C° 0 mm 3 mps 641 mmHg 44%
05:00 -1°C° 0 mm 2 mps 641 mmHg 45%
06:00 -1°C° 0 mm 2 mps 641 mmHg 46%
07:00 +1°C° 0 mm 2 mps 641 mmHg 47%
08:00 +2°C° 0 mm 2 mps 642 mmHg 47%
09:00 +4°C° 0 mm 1 mps 642 mmHg 48%
10:00 +5°C° 0 mm 1 mps 642 mmHg 50%
11:00 +6°C° 0 mm 1 mps 642 mmHg 52%
12:00 +6°C° 0 mm 0 mps 643 mmHg 54%
13:00 +5°C° 0 mm 0 mps 642 mmHg 54%
14:00 +5°C° 0 mm 0 mps 642 mmHg 55%
15:00 +4°C° 0 mm 0 mps 642 mmHg 55%
16:00 +3°C° 0 mm 0 mps 641 mmHg 54%
17:00 +3°C° 0 mm 1 mps 641 mmHg 54%
18:00 +2°C° 0 mm 1 mps 641 mmHg 53%
19:00 +2°C° 0 mm 1 mps 642 mmHg 52%
20:00 +2°C° 0 mm 1 mps 642 mmHg 52%
21:00 +3°C° 0 mm 1 mps 642 mmHg 51%
22:00 +2°C° 0 mm 1 mps 642 mmHg 55%
23:00 +2°C° 0 mm 1 mps 642 mmHg 59%

30 November, Monday

Time Temperature Precipitation Wind Pressure Humidity
00:00 +2°C° 0 mm 1 mps 642 mmHg 63%
01:00 +2°C° 0 mm 1 mps 642 mmHg 66%
02:00 +2°C° 0 mm 1 mps 642 mmHg 69%
03:00 +1°C° 0 mm 1 mps 641 mmHg 72%
04:00 +1°C° 0 mm 1 mps 641 mmHg 76%
05:00 +1°C° 0 mm 1 mps 641 mmHg 80%
06:00 0°C° 0 mm 1 mps 641 mmHg 83%
07:00 +1°C° 0 mm 1 mps 641 mmHg 84%
08:00 +2°C° 0 mm 1 mps 642 mmHg 84%
09:00 +2°C° 0 mm 1 mps 642 mmHg 85%
10:00 +2°C° 0 mm 1 mps 642 mmHg 87%
11:00 +3°C° 0 mm 1 mps 641 mmHg 89%
12:00 +3°C° 0 mm 1 mps 641 mmHg 92%
13:00 +3°C° 0 mm 1 mps 641 mmHg 93%
14:00 +1°C° 0 mm 2 mps 641 mmHg 95%
15:00 +1°C° 0 mm 2 mps 640 mmHg 96%
16:00 +2°C° 0 mm 1 mps 640 mmHg 96%
17:00 +1°C° 0 mm 1 mps 640 mmHg 96%
18:00 +1°C° 0 mm 1 mps 640 mmHg 96%
19:00 +1°C° 0 mm 1 mps 640 mmHg 95%
20:00 0°C° 0 mm 1 mps 640 mmHg 94%
21:00 0°C° 0 mm 1 mps 640 mmHg 93%
22:00 0°C° 0 mm 1 mps 640 mmHg 92%
23:00 -1°C° 0 mm 1 mps 639 mmHg 90%
Show more

We Need Your Consent

Meteoprog and our Service Providers may store and access personal data such as cookies, device identifiers or other similar technologies on your device and process such data to personalise content and ads, as well as provide social media features and to analyse the traffic.

  • Store and/or access information on your device

    Cookies, device identifiers or other information can be stored or accessed on your device for the purposes indicated above.

  • Personalised ads and content, ad and content measurement, audience insights, and products development

    Ads and content can be personalised based on a profile. More data can be added to better personalise ads and content. Ad and content performance can be measured. Insights about the audience who saw the ads and content can be derived. Such data can be used to develop or improve user’s experience, systems and software.

By clicking ‘I Agree’ you will allow the use of indicated cookies, device identifiers, web beacons or other similar technologies. Your settings can be changed in the browser on your device.

For certain purposes, legitimate interests may be relied on, rather than consent. You can read more about this in our Privacy and Cookie Policy.